Location: Dilsberg
(49.3983°N, 8.8354°E)
Time: 18:47:52
(UTC+00:00)

Cosmos 1959 Rocket - Pass Details

Date: 19 May 2025
Orbit: 947 x 995 km, 83.0° (Epoch: 20 June)

Event Time Altitude Azimuth Distance (km) Brightness Sun altitude
Rises 20:50:14 0° 351° (N) 3,650 8.7 -13.0°
Reaches altitude 10° 20:52:44 10° 353° (N) 2,705 7.8 -13.2°
Maximum altitude 20:58:56 79° 80° (E) 992 4.5 -13.8°
Enters shadow 21:03:44 18° 166° (SSE) 2,189 5.8 -14.2°
